GEFSNGP_con_maxscp_312.txt.gz
SCP
0 0 0 0 0 0 0 0 0 0 0 1 1 1 2 2 3 3 4 4 6 6 6 6 5 5 5 4 4 4 5 5 5 5 4 4 4 3 4 4 5 5 5 5
0 0 0 0 0 0 0 0 0 0 1 1 1 1 2 2 3 3 4 5 7 7 7 6 5 4 4 4 3 4 4 5 5 4 4 4 4 5 5 5 5 5 4 4
0 0 0 0 0 0 0 1 1 1 1 1 1 1 2 2 3 3 4 5 7 8 7 6 4 4 3 3 3 3 4 4 4 5 6 6 6 6 7 7 6 5 4 4
0 0 0 0 0 0 1 1 1 1 1 1 1 1 2 2 3 4 5 6 7 8 7 6 5 4 3 3 3 3 4 4 4 6 7 6 6 6 6 6 6 5 4 4
0 0 0 0 0 1 1 1 1 1 1 1 1 1 2 3 4 5 5 5 6 7 7 6 5 5 4 4 3 3 3 4 4 5 5 5 4 4 5 5 6 6 5 5
0 0 0 1 1 1 1 1 1 1 1 2 2 2 3 4 5 5 5 5 5 6 6 6 6 6 5 4 4 3 3 4 4 5 4 3 3 3 4 5 6 6 5 5
1 0 0 1 1 1 1 1 1 1 2 2 2 2 3 5 5 5 5 5 5 5 5 6 6 6 5 5 4 4 4 4 5 5 4 4 4 4 4 5 6 6 6 6
1 0 1 1 1 1 1 1 1 1 2 2 3 3 3 4 5 5 5 5 4 4 5 5 6 6 5 5 5 4 4 5 6 6 5 5 5 5 5 5 5 6 6 6
1 1 1 1 1 1 1 1 1 2 2 3 4 3 3 4 5 5 5 5 4 4 5 5 5 6 5 5 5 5 5 5 6 6 6 6 5 5 5 5 5 5 5 5
1 1 1 1 1 1 1 1 1 2 3 3 3 3 4 5 5 6 6 6 5 5 5 6 6 6 6 6 6 6 6 6 6 6 6 5 5 4 4 4 4 4 5 5
2 2 1 1 1 1 1 1 1 2 3 3 3 3 5 6 6 7 7 7 7 7 6 7 8 7 7 6 7 6 6 6 5 5 5 5 5 4 4 4 4 3 4 4
3 3 2 1 1 1 1 1 2 2 2 2 3 4 6 7 8 9 9 8 8 7 7 7 8 8 7 7 7 6 5 4 3 3 4 5 5 4 4 4 3 2 2 2
4 4 3 2 2 2 2 2 2 2 2 3 3 5 6 7 9 9 9 9 8 7 6 6 7 7 7 6 6 5 4 4 3 3 4 4 4 4 4 3 2 1 1 1
4 4 4 3 3 2 3 3 4 3 3 4 4 5 6 7 8 9 9 9 8 6 5 5 5 6 6 6 5 4 4 4 4 4 4 3 3 4 4 3 3 2 1 1
4 4 4 4 3 3 3 4 4 4 4 5 5 4 4 5 6 7 8 8 7 5 4 4 4 4 4 5 4 4 4 4 4 4 4 3 3 3 3 3 3 2 2 2
5 5 4 4 4 4 4 4 4 4 4 4 4 3 3 4 5 5 6 6 5 4 3 4 3 3 3 3 4 4 4 3 3 3 3 3 3 3 3 3 2 2 2 2
6 5 5 5 5 5 5 4 4 3 3 3 3 2 2 3 4 5 4 4 3 3 3 3 4 3 3 3 3 4 4 3 2 2 3 4 4 4 3 2 2 1 2 2
8 6 5 6 7 7 6 5 3 3 2 2 2 2 2 4 5 5 4 4 3 4 4 4 4 4 3 3 3 3 3 3 2 3 4 4 5 5 4 3 2 1 2 3
7 6 6 6 6 6 6 4 3 2 2 2 2 2 3 4 5 5 4 4 3 3 4 4 4 4 3 3 2 2 3 3 3 4 4 4 4 4 3 2 2 2 2 3
5 5 5 4 4 4 4 4 3 3 2 2 2 3 4 4 5 4 3 3 2 2 3 3 3 3 3 2 2 2 3 3 3 4 4 3 3 2 2 2 2 1 2 2
4 4 3 3 3 4 4 4 3 3 2 2 3 3 3 4 3 3 2 1 1 1 1 1 2 2 2 2 1 2 3 3 3 3 2 2 1 1 1 2 2 2 2 2
4 4 3 3 4 4 4 4 3 3 3 2 2 2 2 2 2 1 1 1 1 1 1 1 1 1 1 1 1 2 2 2 2 2 2 1 1 1 2 2 3 3 3 3
4 3 3 3 4 4 4 3 3 3 3 2 2 1 1 1 1 0 0 0 0 0 0 0 0 1 1 1 1 1 1 1 1 1 2 2 2 2 3 3 4 5 4 3
4 3 3 3 3 3 3 3 3 3 3 2 2 1 1 1 0 0 0 0 0 0 0 0 0 0 0 1 1 1 1 1 1 1 2 2 2 2 3 3 4 4 4 3
3 3 2 3 3 3 3 3 3 3 2 2 1 1 1 0 0 0 0 0 0 0 0 0 0 0 0 1 1 1 1 1 1 1 1 2 2 2 2 2 2 3 2 2
2 2 2 2 2 2 2 2 3 2 2 1 1 1 0 0 0 0 1 1 0 0 0 0 0 0 1 1 1 1 1 1 1 1 1 1 1 1 1 1 1 2 1 1
2 1 1 1 1 2 2 2 2 2 1 1 1 0 0 0 0 0 1 1 1 0 0 1 1 1 1 1 1 1 1 1 1 1 1 1 1 1 1 1 2 1 1 1

GEFSNGP_con_maxscp_318.txt.gz
SCP
0 0 0 0 0 0 0 0 0 1 1 2 3 3 4 3 3 3 4 8 11 13 14 14 12 10 10 10 11 12 12 10 9 10 11 11 10 9 8 7 6 6 6 6
0 0 0 0 0 0 0 1 1 1 2 2 2 3 4 4 4 4 5 7 11 12 12 12 11 10 10 10 11 12 12 11 11 11 11 10 9 8 7 6 6 6 7 7
0 0 0 0 0 0 1 1 1 2 2 2 2 3 3 4 5 5 5 7 10 12 11 10 10 10 10 10 10 11 11 11 11 10 9 8 8 7 6 6 6 7 7 7
0 0 0 0 0 1 1 1 2 2 2 2 2 3 3 4 5 6 6 7 10 12 11 10 10 10 11 10 9 8 8 8 8 8 8 8 8 7 7 7 8 8 7 6
1 0 0 1 1 1 1 2 2 2 3 3 3 3 4 5 6 6 7 8 10 12 12 11 11 11 12 10 8 6 6 7 7 7 8 8 8 8 7 8 9 8 6 5
1 1 1 1 1 1 1 2 2 2 3 3 3 4 5 6 7 8 9 10 11 12 14 13 12 12 10 8 7 7 7 8 8 8 8 8 8 8 8 9 9 8 7 7
0 0 1 1 1 1 2 2 2 2 3 3 4 5 6 7 8 10 11 11 11 12 13 13 12 11 9 7 7 8 8 8 9 8 7 7 7 8 9 10 10 9 9 9
1 1 1 2 2 2 2 2 2 2 3 5 6 6 7 8 9 11 12 11 10 11 12 12 11 11 10 9 9 9 9 9 9 8 7 6 7 9 10 10 11 11 10 9
1 2 3 3 2 2 2 2 2 2 4 6 7 7 8 9 10 11 12 10 9 9 10 11 11 11 11 11 10 9 10 10 9 8 8 8 9 9 9 10 10 10 9 8
3 3 4 4 4 3 2 2 2 3 5 6 6 7 9 11 11 11 10 9 8 9 11 13 13 12 12 11 9 8 9 9 9 9 10 10 9 7 7 7 8 7 6 5
3 3 4 5 4 3 3 3 3 4 4 5 5 7 9 12 12 11 10 9 9 12 15 16 16 15 13 11 9 8 9 10 11 11 10 9 7 5 4 5 5 4 3 3
3 3 4 4 4 3 3 3 3 3 3 4 5 7 10 13 13 12 12 13 15 17 19 19 18 16 13 10 9 10 12 14 14 12 10 7 5 3 3 2 2 2 2 2
2 2 3 3 3 3 3 3 3 3 3 4 5 7 11 14 14 13 14 16 20 21 20 18 17 15 12 9 9 11 14 15 14 12 9 6 5 4 4 3 2 1 1 0
3 3 3 3 3 2 2 3 3 3 4 5 6 8 11 13 14 13 15 17 20 20 19 18 16 13 10 8 8 10 12 11 11 10 8 6 5 5 5 5 5 4 2 1
4 4 3 3 3 3 3 3 4 4 5 5 6 8 11 12 13 14 16 18 19 19 19 17 15 12 9 7 8 8 8 7 8 9 8 7 5 4 4 5 6 6 4 3
6 5 3 3 4 4 4 4 4 4 5 6 7 10 12 13 14 15 17 18 18 18 17 15 13 10 8 7 7 7 6 5 6 8 7 6 5 3 3 4 6 6 5 4
6 5 5 5 6 5 5 5 5 4 5 7 10 12 14 16 15 15 16 16 16 15 14 12 10 8 6 5 5 5 4 4 5 5 5 5 4 4 3 5 8 8 5 3
7 7 7 7 7 6 6 5 4 4 6 10 13 14 16 16 15 14 13 13 12 11 10 9 7 5 5 5 4 4 4 5 5 4 4 4 4 4 5 7 10 8 4 2
8 8 7 6 5 5 5 4 4 6 10 13 15 15 15 15 14 12 11 10 9 8 7 5 4 4 5 5 5 5 5 5 5 5 5 5 5 6 7 9 8 5 2 2
6 6 5 4 4 4 4 5 8 12 14 15 14 14 13 12 11 9 8 7 6 6 5 3 3 3 4 4 4 4 4 4 5 5 6 6 6 7 8 7 5 2 1 1
4 4 3 4 4 4 5 8 14 16 14 12 11 10 9 7 6 5 4 4 4 3 2 2 2 2 2 2 3 3 4 4 5 7 8 8 7 7 6 4 2 1 1 1
5 4 4 5 6 7 8 11 13 12 9 8 8 7 5 4 3 3 3 3 2 1 1 1 1 2 2 2 2 3 4 5 7 8 8 7 6 4 3 2 1 1 1 1
7 6 6 7 9 9 10 11 10 7 6 5 6 6 5 3 2 2 2 1 1 0 0 0 1 1 1 1 2 3 5 6 7 7 6 4 2 2 1 1 1 1 1 2
8 7 7 9 10 10 10 9 7 5 4 4 4 4 4 3 2 1 1 0 0 0 0 0 0 1 1 1 2 3 5 6 5 4 2 1 1 1 1 1 1 1 1 2
8 7 6 7 8 7 7 7 6 4 3 3 3 3 2 2 1 1 0 0 0 0 0 0 0 0 1 1 2 4 5 5 3 2 1 1 1 1 1 1 1 1 1 1
6 5 4 4 4 4 4 4 4 4 3 3 3 2 1 1 0 0 0 0 0 0 0 0 1 1 1 2 3 3 3 2 1 1 1 1 1 1 1 1 1 1 1 1
4 4 4 3 3 3 3 2 3 3 3 2 2 1 1 0 0 0 0 0 0 0 0 1 1 1 2 3 3 3 2 1 0 0 1 1 1 1 1 1 1 1 1 1

GEFSNGP_con_maxscp_324.txt.gz
SCP
0 0 0 0 0 0 0 0 0 0 1 2 4 5 6 6 5 5 5 6 7 8 8 6 6 7 9 10 12 15 16 14 11 8 6 7 7 7 6 5 3 2 1 1
0 0 0 0 0 0 0 0 0 0 1 4 7 9 8 7 6 5 5 5 6 7 7 6 6 6 8 10 13 14 14 12 10 8 8 8 8 7 6 4 3 2 2 2
0 0 0 0 0 0 0 0 1 1 3 6 9 11 9 7 6 5 5 5 6 6 6 6 5 6 8 10 12 13 11 9 7 8 9 8 6 5 4 4 4 3 3 2
0 0 0 0 0 1 1 1 2 3 6 8 9 9 8 7 6 5 5 6 7 7 7 7 7 8 9 10 10 9 8 6 5 5 6 5 3 3 3 4 4 3 3 3
0 0 0 0 1 1 2 2 3 5 7 7 7 7 6 5 5 5 6 9 9 9 9 8 8 9 10 9 8 7 5 4 3 3 3 2 2 2 3 4 4 3 3 3
0 0 0 1 1 2 2 2 2 4 5 5 5 4 4 4 4 5 8 11 12 11 10 9 8 8 8 8 7 5 4 3 2 2 2 2 2 2 3 4 4 4 4 3
0 0 0 1 1 1 1 1 1 1 2 3 3 3 3 3 4 7 11 13 13 11 10 8 7 7 7 6 6 5 4 3 2 1 1 2 2 3 3 4 6 6 4 2
0 0 0 1 1 1 1 0 0 1 1 2 3 4 4 5 6 9 12 12 11 9 8 7 6 6 6 6 6 5 4 3 2 2 2 2 3 3 3 5 7 6 4 2
1 1 0 1 1 1 1 0 1 1 2 3 4 4 5 5 6 8 9 9 8 7 6 6 5 5 6 6 6 5 5 4 4 4 4 4 4 4 4 6 7 6 4 3
2 1 1 1 1 1 1 1 1 2 3 4 5 5 5 6 6 6 6 7 7 7 7 6 6 6 5 6 6 6 7 7 6 7 7 6 5 4 4 6 7 6 4 3
2 2 2 1 1 1 1 2 3 4 5 6 5 5 5 6 6 6 6 7 8 8 8 8 8 7 6 6 6 7 8 8 8 8 8 7 6 5 4 5 7 6 4 3
1 1 2 2 2 2 3 3 4 5 6 6 5 5 5 5 5 5 6 8 9 9 9 10 10 9 9 8 7 7 7 7 7 7 7 6 7 5 4 4 5 5 4 3
1 1 2 2 3 4 4 5 5 6 6 6 5 5 5 4 4 4 6 9 10 9 10 10 10 10 9 8 7 6 6 7 7 6 5 4 5 4 3 3 3 3 2 2
2 2 2 2 3 4 6 7 8 8 7 6 6 5 5 4 4 4 6 9 11 10 10 10 10 9 8 6 6 6 6 7 7 6 4 3 3 3 3 3 3 3 2 1
2 2 2 2 3 5 8 9 9 8 7 6 6 5 4 4 4 4 7 10 12 12 11 10 9 8 6 5 4 5 6 7 6 5 4 3 2 2 2 3 4 3 2 1
1 2 3 4 6 8 9 10 9 8 6 6 5 4 3 3 4 4 6 8 12 13 12 10 9 8 7 5 4 4 5 5 5 5 4 4 3 3 3 3 4 3 2 1
1 2 4 6 8 10 10 9 8 6 5 4 3 3 3 3 2 3 4 6 9 12 12 11 10 9 7 5 4 3 3 3 4 4 5 4 4 4 4 4 4 3 2 1
2 3 5 7 9 10 9 7 6 5 4 3 2 2 2 2 1 1 3 6 8 9 11 11 10 9 7 5 4 2 2 2 2 3 4 4 4 5 5 5 4 3 1 0
3 4 5 7 8 8 7 5 4 4 3 3 2 2 1 1 1 1 3 6 7 8 11 10 9 8 6 4 3 2 1 1 1 2 3 4 4 5 5 4 3 2 1 0
2 3 5 7 7 6 5 4 3 4 4 3 2 2 1 1 0 0 3 6 7 9 10 8 7 6 4 2 1 1 1 1 1 2 3 3 3 3 3 3 2 1 0 0
2 3 4 6 6 5 4 3 4 4 4 4 3 2 1 0 1 2 4 6 7 8 7 6 5 4 2 1 1 1 0 0 1 2 2 2 2 2 1 1 1 0 0 0
2 3 5 5 5 4 3 3 4 4 4 4 3 2 1 1 2 4 5 6 5 5 4 4 3 2 1 0 0 0 0 0 1 1 2 1 1 0 0 0 0 0 0 0
3 4 5 5 4 3 2 2 3 3 3 4 4 3 2 2 3 5 5 4 3 2 3 2 1 0 0 0 0 0 0 0 1 1 1 0 0 0 0 0 0 0 0 0
4 5 5 4 4 2 2 2 2 2 3 4 4 4 3 2 3 3 3 2 1 1 1 1 0 0 0 0 0 0 0 0 1 1 1 0 0 0 0 0 0 0 0 0
5 5 4 3 3 2 1 1 1 2 2 2 3 2 2 2 2 1 1 0 0 0 0 0 0 0 0 0 0 0 0 0 1 1 0 0 1 1 1 1 1 0 0 0
4 4 2 2 1 1 1 1 1 1 1 1 1 1 1 1 1 0 0 0 0 0 0 0 0 0 0 0 0 0 1 1 1 0 0 0 1 1 1 1 1 0 0 0
3 2 1 1 1 1 0 0 0 1 1 1 1 1 0 0 0 0 0 0 0 0 0 0 0 0 0 0 0 0 1 1 1 0 0 0 0 1 1 1 0 0 0 0

GEFSNGP_con_maxscp_330.txt.gz
SCP
0 0 0 0 0 0 0 0 0 0 0 0 0 1 1 2 3 3 3 3 3 2 2 2 2 3 3 4 4 3 3 3 3 4 4 5 5 4 4 4 3 2 2 2
0 0 0 0 0 0 0 0 0 0 0 0 1 2 2 2 3 3 3 3 3 3 2 2 2 3 3 4 4 3 3 3 3 4 4 4 4 4 4 4 3 2 2 2
0 0 0 0 0 0 0 0 0 0 0 1 2 3 3 3 3 3 4 4 4 4 3 2 2 3 3 4 4 3 2 2 3 3 4 4 3 3 3 3 2 1 2 2
0 0 0 0 0 1 1 1 1 1 1 2 3 3 3 3 3 4 5 5 5 5 3 3 3 3 3 4 3 2 2 2 2 3 3 3 2 2 2 2 1 1 1 2
0 0 0 0 0 1 2 2 1 1 1 2 3 3 3 3 3 4 5 6 6 5 3 2 3 3 3 3 3 2 2 2 2 3 3 2 2 2 1 1 1 1 1 1
0 0 0 0 0 1 1 2 2 2 2 2 2 2 2 2 3 4 5 6 5 3 3 3 4 4 4 4 3 3 3 3 3 3 3 2 2 1 1 1 1 1 1 1
0 0 0 0 0 0 1 1 2 2 2 1 1 2 1 2 2 3 5 5 3 3 3 4 5 6 6 5 4 3 3 3 4 3 2 2 1 1 1 1 1 1 1 1
0 0 0 0 0 0 0 1 1 1 1 1 1 1 1 2 2 3 4 3 3 3 4 5 6 6 6 4 3 2 2 3 3 3 2 2 1 1 1 1 1 2 2 2
0 0 0 0 0 0 0 0 0 0 0 0 1 1 1 2 2 3 3 2 2 3 4 4 4 4 4 3 2 2 2 3 3 3 2 2 1 1 1 2 2 2 2 3
0 0 1 0 0 0 0 0 0 0 0 1 1 1 1 2 2 2 2 1 2 2 2 2 3 3 3 2 2 1 1 2 3 3 3 2 1 1 1 2 2 2 2 3
1 1 1 1 1 1 0 0 0 1 1 1 1 1 2 2 2 2 1 1 1 1 1 1 3 3 3 3 2 2 1 2 3 3 2 2 2 2 1 1 1 2 3 3
1 1 1 1 1 1 1 1 1 1 2 2 2 2 2 2 2 2 2 2 2 1 1 1 3 5 4 4 3 3 2 2 2 2 2 2 2 1 1 1 1 2 3 3
0 1 1 1 1 2 2 2 2 2 3 3 2 2 2 2 1 1 1 2 2 2 1 2 4 6 6 4 4 3 3 2 2 2 2 2 1 1 1 1 1 1 1 2
0 0 1 1 1 2 3 3 3 4 4 3 3 2 2 1 1 1 1 1 2 2 2 2 4 5 5 4 4 3 3 2 1 1 1 1 1 1 1 1 1 1 1 1
0 0 1 1 2 2 3 3 4 4 4 4 3 2 1 1 1 1 1 1 2 2 1 2 2 2 3 3 3 3 3 2 1 1 1 1 1 1 1 1 1 1 1 1
0 1 1 2 2 3 3 4 4 5 4 3 2 2 1 1 1 1 1 1 1 1 1 1 0 1 2 3 4 3 3 2 1 1 1 1 1 1 1 1 2 2 3 3
0 1 1 2 3 3 3 4 5 5 4 3 2 1 1 1 1 1 1 1 0 0 0 0 0 0 2 3 4 4 3 1 1 1 1 1 1 2 2 3 4 4 4 4
0 0 1 2 3 4 4 4 4 4 4 3 2 1 1 1 1 1 0 0 0 0 0 0 0 0 2 3 4 4 2 1 1 1 2 1 1 2 3 3 4 5 4 3
0 0 1 2 3 4 5 4 4 4 3 2 2 1 1 1 1 0 0 0 0 0 0 0 0 1 2 3 4 3 2 1 1 1 2 1 1 1 2 3 3 3 3 2
0 0 1 2 3 4 5 4 4 3 3 2 2 1 1 0 0 0 0 0 0 0 0 0 0 1 2 3 3 3 2 1 1 1 1 1 1 1 1 2 2 2 1 1
0 0 1 2 4 4 5 4 3 2 2 2 2 1 1 0 0 0 0 0 0 0 0 0 0 1 2 2 2 2 2 1 1 1 1 1 0 0 0 1 1 1 0 0
0 0 2 3 4 5 5 4 2 1 1 1 2 1 1 0 0 0 0 0 0 0 0 0 0 1 1 1 1 2 1 1 0 0 0 0 0 0 0 0 0 0 0 0
0 1 2 4 4 4 3 2 1 1 1 1 1 1 1 1 0 0 0 0 0 0 0 0 0 0 1 1 1 1 0 0 0 0 0 0 0 0 0 0 0 0 0 0
1 2 3 4 3 3 2 1 1 1 1 1 1 1 1 1 1 0 0 0 0 0 0 0 0 0 0 0 0 0 0 0 0 0 0 0 0 0 0 0 0 0 0 0
1 2 3 3 2 2 1 1 1 1 1 1 1 1 1 1 1 0 0 0 0 0 0 0 0 0 0 0 0 0 0 0 0 0 0 0 0 0 0 0 0 0 0 0
1 1 1 2 1 1 0 0 1 0 0 0 0 0 1 0 0 0 0 0 0 0 0 0 0 0 0 0 0 0 0 0 0 0 0 0 0 0 0 0 0 0 0 0
1 1 1 1 0 0 0 0 0 0 0 0 0 0 0 0 0 0 0 0 0 0 0 0 0 0 0 0 0 0 0 0 0 0 0 0 0 0 0 0 0 0 0 0